Gas Grouper — V7TZ2 — position and weather

sailwx.info

Track history (hours):
 
Tides and Currents Weather Stations Pressure Air Temp Water Temp Dewpoint Dewpoint Depression Visibility Wind Speed Wind Dir Waves Ship Positions

Gas Grouper

Last reported at 2014-Jul-28 22:33 UTC. Time now 2014-Jul-28 22:41 UTC.
Position N 36°60' E 024°07'.

Length 174 m; draft 10.4 m.

Type: Tanker. MMSI: 538003910.

Date/timePositionNaut miles runAvg speedWind from/ knotsBaromVisibWave heightAir tempDewpointWater temp
2014-Jul-28 22:33N 36°60' E 024°07'1616.1
2014-Jul-28 21:34N 37°15' E 024°12'1815.5
2014-Jul-28 20:25N 37°31' E 024°22'1315.1
2014-Jul-28 19:33N 37°42' E 024°30'1514.9
2014-Jul-28 18:33N 37°57' E 024°36'6215.4
2014-Jul-28 14:33N 38°52' E 025°10'1615.5
2014-Jul-28 13:33N 39°06' E 025°19'1615.7
2014-Jul-28 12:32N 39°20' E 025°28'  
2014-Jul-24 20:07N 46°34' E 031°00'2 3.9
2014-Jul-24 19:32N 46°32' E 030°58'34310.1
2014-Jul-23 09:27N 40°60' E 028°60'1212.3
2014-Jul-23 08:29N 40°50' E 028°51'5 4.8
2014-Jul-23 07:32N 40°46' E 028°48'0 0.3
2014-Jul-23 06:32N 40°46' E 028°48'0 0.3
2014-Jul-23 05:33N 40°46' E 028°49'0 0.4
2014-Jul-23 04:33N 40°46' E 028°49'0 0.3
2014-Jul-23 03:32N 40°46' E 028°49'0 0.3
2014-Jul-23 02:32N 40°46' E 028°50'0 0.4
2014-Jul-23 01:26N 40°46' E 028°50'1 0.6
2014-Jul-23 00:30N 40°47' E 028°50'1 0.5
2014-Jul-22 22:20N 40°46' E 028°50'0 0.6
2014-Jul-22 21:33N 40°46' E 028°50'2 0.9
2014-Jul-22 19:14N 40°47' E 028°53'1 1.2
2014-Jul-22 18:22N 40°47' E 028°54'1 1.3
2014-Jul-22 17:33N 40°48' E 028°55'1 1.3
2014-Jul-22 16:29N 40°49' E 028°56'6 6.3
2014-Jul-22 15:33N 40°44' E 028°60'1 0.6
2014-Jul-22 14:33N 40°44' E 028°59'151 3.3
2014-Jul-20 17:18N 39°51' E 025°55'153 8.2
2014-Jul-19 22:32N 37°34' E 024°26'2315.9
2014-Jul-19 21:04N 37°14' E 024°11'916.0
2014-Jul-19 20:29N 37°05' E 024°08'1516.3
2014-Jul-19 19:33N 36°51' E 024°02'1916.2
2014-Jul-19 18:22N 36°35' E 023°48'4916.6
2014-Jul-19 15:25N 35°60' E 023°06'  
Track history (hours):
 
Tides and Currents Weather Stations Pressure Air Temp Water Temp Dewpoint Dewpoint Depression Visibility Wind Speed Wind Dir Waves Ship Positions

Gas Grouper

Last reported at 2014-Jul-28 22:33 UTC. Time now 2014-Jul-28 22:41 UTC.
Position N 36°60' E 024°07'.

Length 174 m; draft 10.4 m.

Type: Tanker. MMSI: 538003910.

Date/timePositionNaut miles runAvg speedWind from/ knotsBaromVisibWave heightAir tempDewpointWater temp
2014-Jul-28 22:33N 36°60' E 024°07'1616.1
2014-Jul-28 21:34N 37°15' E 024°12'1815.5
2014-Jul-28 20:25N 37°31' E 024°22'1315.1
2014-Jul-28 19:33N 37°42' E 024°30'1514.9
2014-Jul-28 18:33N 37°57' E 024°36'6215.4
2014-Jul-28 14:33N 38°52' E 025°10'1615.5
2014-Jul-28 13:33N 39°06' E 025°19'1615.7
2014-Jul-28 12:32N 39°20' E 025°28'  
2014-Jul-24 20:07N 46°34' E 031°00'2 3.9
2014-Jul-24 19:32N 46°32' E 030°58'34310.1
2014-Jul-23 09:27N 40°60' E 028°60'1212.3
2014-Jul-23 08:29N 40°50' E 028°51'5 4.8
2014-Jul-23 07:32N 40°46' E 028°48'0 0.3
2014-Jul-23 06:32N 40°46' E 028°48'0 0.3
2014-Jul-23 05:33N 40°46' E 028°49'0 0.4
2014-Jul-23 04:33N 40°46' E 028°49'0 0.3
2014-Jul-23 03:32N 40°46' E 028°49'0 0.3
2014-Jul-23 02:32N 40°46' E 028°50'0 0.4
2014-Jul-23 01:26N 40°46' E 028°50'1 0.6
2014-Jul-23 00:30N 40°47' E 028°50'1 0.5
2014-Jul-22 22:20N 40°46' E 028°50'0 0.6
2014-Jul-22 21:33N 40°46' E 028°50'2 0.9
2014-Jul-22 19:14N 40°47' E 028°53'1 1.2
2014-Jul-22 18:22N 40°47' E 028°54'1 1.3
2014-Jul-22 17:33N 40°48' E 028°55'1 1.3
2014-Jul-22 16:29N 40°49' E 028°56'6 6.3
2014-Jul-22 15:33N 40°44' E 028°60'1 0.6
2014-Jul-22 14:33N 40°44' E 028°59'151 3.3
2014-Jul-20 17:18N 39°51' E 025°55'153 8.2
2014-Jul-19 22:32N 37°34' E 024°26'2315.9
2014-Jul-19 21:04N 37°14' E 024°11'916.0
2014-Jul-19 20:29N 37°05' E 024°08'1516.3
2014-Jul-19 19:33N 36°51' E 024°02'1916.2
2014-Jul-19 18:22N 36°35' E 023°48'4916.6
2014-Jul-19 15:25N 35°60' E 023°06'  

Dump ship's entire track history